Regional Weather Roundup
Issued by NWS Bismarck, ND

Home | Current Version | Previous Version | Text Only | Print | Product List | Glossary On
Versions: 1 2 3 4 5 6 7 8 9 10 11 12 13 14 15 16 17 18 19 20 21 22 23 24 25 26 27 28 29 30 31 32 33 34 35 36 37 38 39 40 41 42 43 44 45 46 47 48 49 50
000
ASUS43 KBIS 241802
RWRBIS

NWR BROADCAST TEXT
NATIONAL WEATHER SERVICE BISMARCK ND
100 PM CDT SUN JUL 24 2016

NOTE: "FAIR" INDICATES FEW OR NO CLOUDS BELOW 12,000 FEET WITH NO
SIGNIFICANT WEATHER AND/OR OBSTRUCTIONS TO VISIBILITY.


CITY           SKY/WX    TMP DP  RH WIND       PRES   REMARKS
WILLISTON      SUNNY     81  49  32 N9G18     30.05F
MINOT          MOSUNNY   81  55  40 W22G30    30.00S
MINOT AFB      MOSUNNY   75  57  53 NW17G25   29.99R
BISMARCK       SUNNY     80  56  43 NW14      30.04F
DICKINSON      SUNNY     78  49  35 NW8       30.08S
GARRISON         N/A     76  58  53 W15G21    30.04S
HETTINGER ARPT SUNNY     82  46  28 W13       30.11F
JAMESTOWN      SUNNY     77  56  48 NW21      29.98S
CARRINGTON     FAIR      75  57  53 NW22G29   30.00S
OAKES            N/A    N/A N/A N/A MISG        N/A
STANLEY        FAIR      75  54  46 NW10G24   30.06S
$$

CITY           SKY/WX    TMP DP  RH WIND       PRES   REMARKS
GRAND FORKS    PTSUNNY   78  63  59 W14G22    29.88R
GRAND FORKS AF MOSUNNY   78  62  57 W14G24    29.89R
DEVILS LAKE    SUNNY     74  59  59 W21G26    29.94S
FARGO          SUNNY     81  61  50 W18G28    29.91S
GRAFTON        FAIR      77  63  61 W17       29.88S
GWINNER        FAIR      81  59  47 NW16G26   29.96F
LANGDON        FAIR      75  61  60 NW18G28   29.91S
ROLLA            N/A     72  57  60 NW17      29.95S
$$

CITY           SKY/WX    TMP DP  RH WIND       PRES   REMARKS
ABERDEEN       SUNNY     81  57  43 N16       30.01R
MOBRIDGE       SUNNY     80  56  43 W12       30.05R
BUFFALO          N/A     83  44  25 VRB3      30.06F
RAPID CITY     CLOUDY    78  48  34 S5        30.14F
GLASGOW        SUNNY     83  52  34 S9        30.02F
SIDNEY         SUNNY     80  52  37 N6        30.05F
WOLF POINT     MOSUNNY   83  51  33 SW9       30.04F
GLENDIVE       SUNNY     81  50  33 VRB5      30.08F
MILES CITY     SUNNY     84  45  25 S5        30.06F
BAKER          SUNNY     81  46  29 CALM      30.12F
$$

CITY           SKY/WX    TMP DP  RH WIND       PRES   REMARKS
BILLINGS       SUNNY     78  43  28 SE3       30.11F
GREAT FALLS    SUNNY     76  35  22 SW8       30.10F
$$




USA.gov is the U.S. government's official web portal to all federal, state and local government web resources and services.